Home > Weather > Louisville > Past weeks

Flag for USA Past Weather in Louisville, Kentucky, USA — Yesterday and Last 2 Weeks

Now
82 °F

Passing clouds.


Feels Like: 88 °F
Forecast: 78 / 93 °F
Wind: 3 mph from Southwest

Location: Standiford Field

Current Time: Jul 25, 2016 at 4:22:14 AM

Latest Report: Jul 25, 2016 at 3:56 AM


Visibility: 9 mi

Pressure: 29.98 "Hg

Humidity: 77%

Dew Point: 74 °F

Location of LouisvilleLocation

Past Weather in Louisville — Graph

°F

Louisville Temperature Yesterday

Maximum temperature yesterday: 94 °F (at 3:56 PM)
Minimum temperature yesterday: 79 °F (at 6:56 AM)
Average temperature yesterday: 87 °F

High & Low Weather Summary for the Past Weeks

 TemperatureHumidityPressure
High95 °F (Jul 23, 5:56 PM)91% (Jul 12, 10:56 AM)30.26 "Hg (Jul 12, 10:56 AM)
Low68 °F (Jul 10, 6:56 AM)38% (Jul 16, 3:56 PM)29.90 "Hg (Jul 23, 6:56 PM)
Average82 °F66%30.04 "Hg
* Reported Jul 10 2:56 AM — Jul 25 2:56 AM, Louisville, Weather by CustomWeather, © 2016

Note: Actual official high and low records may vary slightly from our data, if they occured in-between our weather recording intervals... More about our weather records

Advertising

Louisville Weather History for the Previous 24 Hours

Scroll right to see more
 ConditionsComfort  
Time TempWeatherWind HumidityBarometerVisibility
2:56 AM
Mon, Jul 25
82 °FPassing clouds.3 mph77%29.99 "Hg9 mi
1:56 AM83 °FPassing clouds.6 mph77%29.97 "Hg9 mi
12:56 AM84 °FPassing clouds.5 mph72%29.94 "Hg10 mi
11:56 PM
Sun, Jul 24
85 °FPassing clouds.6 mph72%29.93 "Hg10 mi
10:56 PM86 °FPassing clouds.7 mph72%29.96 "Hg9 mi
9:56 PM88 °FPartly sunny.6 mph63%29.95 "Hg10 mi
8:56 PM90 °FPartly sunny.6 mph57%29.94 "Hg9 mi
7:56 PM91 °FScattered clouds.9 mph54%29.94 "Hg9 mi
6:56 PM92 °FBroken clouds.7 mph52%29.93 "Hg9 mi
5:56 PM94 °FBroken clouds.6 mph48%29.95 "Hg10 mi
4:56 PM94 °FBroken clouds.9 mph51%29.95 "Hg9 mi
3:56 PM94 °FPartly sunny.9 mph51%29.96 "Hg9 mi
2:56 PM93 °FPartly sunny.12 mph52%29.97 "Hg9 mi
1:56 PM91 °FPartly sunny.5 mph56%29.98 "Hg9 mi
12:56 PM92 °FBroken clouds.10 mph56%29.98 "Hg9 mi
11:56 AM90 °FBroken clouds.9 mph61%30.00 "Hg8 mi
10:56 AM88 °FPartly sunny.3 mph65%29.99 "Hg8 mi
9:56 AM85 °FPartly sunny.No wind70%29.98 "Hg7 mi
8:56 AM82 °FHigh level clouds.No wind79%29.98 "Hg6 mi
7:56 AM79 °FFog.7 mph88%29.97 "Hg5 mi
6:56 AM79 °FFog.3 mph88%29.96 "Hg5 mi
5:56 AM80 °FOvercast.No wind85%29.95 "Hg7 mi
4:56 AM80 °FHigh level clouds.6 mph87%29.94 "Hg7 mi
Weather by CustomWeather, © 2016

See weather overviewHow to use our weather pages